Time,TemperatureF,DewpointF,PressureIn,WindDirection,WindDirectionDegrees,WindSpeedMPH,WindSpeedGustMPH,Humidity,HourlyPrecipIn,Conditions,Clouds,dailyrainin,SoftwareType,DateUTC
2013-07-25 00:00:00,81.4,76.1,29.89,ESE,105,3.0,3.0,84,0.00,,,0.00,Wunderground v.1.15,2013-07-25 05:00:00,
2013-07-25 00:10:00,81.3,76.0,29.89,East,94,2.0,4.0,84,0.00,,,0.00,Wunderground v.1.15,2013-07-25 05:10:00,
2013-07-25 00:15:00,81.4,76.1,29.89,East,86,3.0,4.0,84,0.00,,,0.00,Wunderground v.1.15,2013-07-25 05:15:00,
2013-07-25 00:20:00,81.4,76.1,29.89,South,173,3.0,3.0,84,0.00,,,0.00,Wunderground v.1.15,2013-07-25 05:20:00,
2013-07-25 00:25:00,81.3,76.0,29.89,East,101,3.0,3.0,84,0.00,,,0.00,Wunderground v.1.15,2013-07-25 05:25:00,
2013-07-25 00:30:00,81.3,76.0,29.89,SSE,161,3.0,3.0,84,0.00,,,0.00,Wunderground v.1.15,2013-07-25 05:30:00,
2013-07-25 00:40:00,81.2,75.9,29.90,SSE,163,3.0,6.0,84,0.00,,,0.00,Wunderground v.1.15,2013-07-25 05:40:00,
2013-07-25 00:45:00,81.3,76.4,29.90,ESE,113,3.0,6.0,85,0.00,,,0.00,Wunderground v.1.15,2013-07-25 05:45:00,
2013-07-25 00:50:00,81.2,76.3,29.90,South,190,3.0,3.0,85,0.00,,,0.00,Wunderground v.1.15,2013-07-25 05:50:00,
2013-07-25 00:55:00,81.2,76.3,29.90,ESE,110,3.0,3.0,85,0.00,,,0.00,Wunderground v.1.15,2013-07-25 05:55:00,
2013-07-25 01:00:00,81.2,76.3,29.90,SE,146,3.0,3.0,85,0.00,,,0.00,Wunderground v.1.15,2013-07-25 06:00:00,
2013-07-25 01:10:00,81.1,76.2,29.90,SSW,201,3.0,3.0,85,0.00,,,0.00,Wunderground v.1.15,2013-07-25 06:10:00,
2013-07-25 01:15:00,81.1,75.8,29.90,SSE,149,3.0,6.0,84,0.00,,,0.00,Wunderground v.1.15,2013-07-25 06:15:00,
2013-07-25 01:20:00,81.1,75.8,29.90,SE,135,3.0,3.0,84,0.00,,,0.00,Wunderground v.1.15,2013-07-25 06:20:00,
2013-07-25 01:25:00,81.0,75.7,29.90,SE,130,3.0,3.0,84,0.00,,,0.00,Wunderground v.1.15,2013-07-25 06:25:00,
2013-07-25 01:30:00,81.0,76.1,29.90,SSE,164,2.0,2.0,85,0.00,,,0.00,Wunderground v.1.15,2013-07-25 06:30:00,
2013-07-25 01:35:00,80.9,76.0,29.90,SSE,155,2.0,2.0,85,0.00,,,0.00,Wunderground v.1.15,2013-07-25 06:35:00,
2013-07-25 01:45:00,80.9,76.0,29.90,South,180,3.0,3.0,85,0.00,,,0.00,Wunderground v.1.15,2013-07-25 06:45:00,
2013-07-25 01:50:00,80.8,75.9,29.90,SE,141,2.0,2.0,85,0.00,,,0.00,Wunderground v.1.15,2013-07-25 06:50:00,
2013-07-25 01:55:00,80.8,75.9,29.90,SSE,148,3.0,3.0,85,0.00,,,0.00,Wunderground v.1.15,2013-07-25 06:55:00,
2013-07-25 02:00:00,80.8,75.9,29.90,South,178,3.0,6.0,85,0.00,,,0.00,Wunderground v.1.15,2013-07-25 07:00:00,
2013-07-25 02:09:00,80.7,75.8,29.90,ESE,118,2.0,2.0,85,0.00,,,0.00,Wunderground v.1.15,2013-07-25 07:09:00,
2013-07-25 02:15:00,80.6,75.7,29.90,ESE,113,2.0,4.0,85,0.00,,,0.00,Wunderground v.1.15,2013-07-25 07:15:00,
2013-07-25 02:20:00,80.6,75.7,29.90,South,190,2.0,2.0,85,0.00,,,0.00,Wunderground v.1.15,2013-07-25 07:20:00,
2013-07-25 02:25:00,80.6,75.7,29.90,SE,124,3.0,4.0,85,0.00,,,0.00,Wunderground v.1.15,2013-07-25 07:25:00,
2013-07-25 02:30:00,80.5,75.6,29.90,SSE,165,3.0,3.0,85,0.00,,,0.00,Wunderground v.1.15,2013-07-25 07:30:00,
2013-07-25 02:35:00,80.5,75.9,29.90,South,182,3.0,4.0,86,0.00,,,0.00,Wunderground v.1.15,2013-07-25 07:35:00,
2013-07-25 02:40:00,80.5,75.9,29.90,WSW,238,3.0,3.0,86,0.00,,,0.00,Wunderground v.1.15,2013-07-25 07:40:00,
2013-07-25 02:50:00,80.3,75.7,29.90,South,170,2.0,5.0,86,0.00,,,0.00,Wunderground v.1.15,2013-07-25 07:50:00,
2013-07-25 02:55:00,80.3,75.7,29.90,South,179,2.0,5.0,86,0.00,,,0.00,Wunderground v.1.15,2013-07-25 07:55:00,
2013-07-25 03:00:00,80.3,75.7,29.90,SW,219,3.0,3.0,86,0.00,,,0.00,Wunderground v.1.15,2013-07-25 08:00:00,
2013-07-25 03:10:00,80.2,75.6,29.90,South,172,2.0,2.0,86,0.00,,,0.00,Wunderground v.1.15,2013-07-25 08:10:00,
2013-07-25 03:15:00,80.1,75.5,29.90,SE,125,2.0,2.0,86,0.00,,,0.00,Wunderground v.1.15,2013-07-25 08:15:00,
2013-07-25 03:24:00,80.0,75.8,29.90,SW,226,2.0,2.0,87,0.00,,,0.00,Wunderground v.1.15,2013-07-25 08:24:00,
2013-07-25 03:29:00,80.0,75.8,29.90,SE,146,2.0,2.0,87,0.00,,,0.00,Wunderground v.1.15,2013-07-25 08:29:00,
2013-07-25 03:35:00,79.9,75.7,29.90,WSW,239,2.0,2.0,87,0.00,,,0.00,Wunderground v.1.15,2013-07-25 08:35:00,
2013-07-25 03:40:00,79.9,75.7,29.90,South,178,2.0,2.0,87,0.00,,,0.00,Wunderground v.1.15,2013-07-25 08:40:00,
2013-07-25 03:45:00,79.8,75.6,29.90,SSE,156,1.0,3.0,87,0.00,,,0.00,Wunderground v.1.15,2013-07-25 08:45:00,
2013-07-25 03:50:00,79.7,75.5,29.90,SSW,200,1.0,2.0,87,0.00,,,0.00,Wunderground v.1.15,2013-07-25 08:50:00,
2013-07-25 03:55:00,79.7,75.5,29.90,South,180,1.0,2.0,87,0.00,,,0.00,Wunderground v.1.15,2013-07-25 08:55:00,
2013-07-25 04:00:00,79.6,75.7,29.90,SSE,163,1.0,1.0,88,0.00,,,0.00,Wunderground v.1.15,2013-07-25 09:00:00,
2013-07-25 04:10:00,79.5,75.6,29.90,SSE,153,1.0,1.0,88,0.00,,,0.00,Wunderground v.1.15,2013-07-25 09:10:00,
2013-07-25 04:15:00,79.5,75.6,29.90,SSE,162,1.0,1.0,88,0.00,,,0.00,Wunderground v.1.15,2013-07-25 09:15:00,
2013-07-25 04:20:00,79.5,75.6,29.90,SE,138,1.0,1.0,88,0.00,,,0.00,Wunderground v.1.15,2013-07-25 09:20:00,
2013-07-25 04:30:00,79.3,75.8,29.89,South,172,0.0,2.0,89,0.00,,,0.00,Wunderground v.1.15,2013-07-25 09:30:00,
2013-07-25 04:35:00,79.3,75.8,29.89,SE,143,0.0,2.0,89,0.00,,,0.00,Wunderground v.1.15,2013-07-25 09:35:00,
2013-07-25 04:40:00,79.2,75.7,29.90,South,177,0.0,0.0,89,0.00,,,0.00,Wunderground v.1.15,2013-07-25 09:40:00,
2013-07-25 04:45:00,79.1,75.6,29.90,SE,134,0.0,0.0,89,0.00,,,0.00,Wunderground v.1.15,2013-07-25 09:45:00,
2013-07-25 04:50:00,79.0,75.5,29.90,SSE,159,0.0,1.0,89,0.00,,,0.00,Wunderground v.1.15,2013-07-25 09:50:00,
2013-07-25 04:55:00,79.0,75.8,29.90,SSE,160,0.0,1.0,90,0.00,,,0.00,Wunderground v.1.15,2013-07-25 09:55:00,
2013-07-25 05:00:00,79.0,75.8,29.90,SE,146,0.0,2.0,90,0.00,,,0.00,Wunderground v.1.15,2013-07-25 10:00:00,
2013-07-25 05:10:00,79.1,75.9,29.90,SSW,212,1.0,1.0,90,0.00,,,0.00,Wunderground v.1.15,2013-07-25 10:10:00,
2013-07-25 05:15:00,79.1,75.9,29.90,ESE,123,0.0,1.0,90,0.00,,,0.00,Wunderground v.1.15,2013-07-25 10:15:00,
2013-07-25 05:20:00,79.2,76.0,29.90,South,170,1.0,1.0,90,0.00,,,0.00,Wunderground v.1.15,2013-07-25 10:20:00,
2013-07-25 05:25:00,79.2,76.0,29.90,SSW,203,1.0,1.0,90,0.00,,,0.00,Wunderground v.1.15,2013-07-25 10:25:00,
2013-07-25 05:35:00,79.1,75.9,29.90,SE,132,1.0,1.0,90,0.00,,,0.00,Wunderground v.1.15,2013-07-25 10:35:00,
2013-07-25 05:40:00,79.1,75.9,29.90,SSW,213,1.0,1.0,90,0.00,,,0.00,Wunderground v.1.15,2013-07-25 10:40:00,
2013-07-25 05:45:00,79.1,75.9,29.90,SSW,204,0.0,1.0,90,0.00,,,0.00,Wunderground v.1.15,2013-07-25 10:45:00,
2013-07-25 05:50:00,79.1,76.2,29.90,SSE,153,1.0,1.0,91,0.00,,,0.00,Wunderground v.1.15,2013-07-25 10:50:00,
2013-07-25 05:55:00,79.1,76.2,29.91,South,191,0.0,1.0,91,0.00,,,0.00,Wunderground v.1.15,2013-07-25 10:55:00,
2013-07-25 06:00:00,79.2,76.3,29.91,SSE,163,1.0,1.0,91,0.00,,,0.00,Wunderground v.1.15,2013-07-25 11:00:00,
2013-07-25 06:10:00,79.2,76.3,29.91,SSE,158,0.0,0.0,91,0.00,,,0.00,Wunderground v.1.15,2013-07-25 11:10:00,
2013-07-25 06:15:00,79.1,76.2,29.92,SSW,204,0.0,0.0,91,0.00,,,0.00,Wunderground v.1.15,2013-07-25 11:15:00,
2013-07-25 06:20:00,79.1,76.2,29.92,South,184,0.0,0.0,91,0.00,,,0.00,Wunderground v.1.15,2013-07-25 11:20:00,
2013-07-25 06:25:00,79.0,76.1,29.92,South,188,0.0,0.0,91,0.00,,,0.00,Wunderground v.1.15,2013-07-25 11:25:00,
2013-07-25 06:30:00,79.0,76.1,29.92,SSE,159,0.0,0.0,91,0.00,,,0.00,Wunderground v.1.15,2013-07-25 11:30:00,
2013-07-25 06:40:00,79.0,76.1,29.92,SE,143,0.0,0.0,91,0.00,,,0.00,Wunderground v.1.15,2013-07-25 11:40:00,
2013-07-25 06:50:00,79.0,76.1,29.92,SSE,158,0.0,1.0,91,0.00,,,0.00,Wunderground v.1.15,2013-07-25 11:50:00,
2013-07-25 06:55:00,79.0,76.5,29.91,SSW,193,1.0,1.0,92,0.00,,,0.00,Wunderground v.1.15,2013-07-25 11:55:00,
2013-07-25 07:00:00,79.0,76.5,29.91,SE,136,1.0,1.0,92,0.00,,,0.00,Wunderground v.1.15,2013-07-25 12:00:00,
2013-07-25 07:10:00,79.2,76.7,29.92,SSE,150,1.0,4.0,92,0.00,,,0.00,Wunderground v.1.15,2013-07-25 12:10:00,
2013-07-25 07:15:00,79.3,76.8,29.92,SE,142,1.0,4.0,92,0.00,,,0.00,Wunderground v.1.15,2013-07-25 12:15:00,
2013-07-25 07:20:00,79.4,76.5,29.92,SE,135,1.0,1.0,91,0.00,,,0.00,Wunderground v.1.15,2013-07-25 12:20:00,
2013-07-25 07:25:00,79.5,76.6,29.92,SSE,161,1.0,4.0,91,0.00,,,0.00,Wunderground v.1.15,2013-07-25 12:25:00,
2013-07-25 07:30:00,79.7,76.8,29.92,South,174,1.0,1.0,91,0.00,,,0.00,Wunderground v.1.15,2013-07-25 12:30:00,
2013-07-25 07:35:00,79.9,77.0,29.92,SSE,148,1.0,4.0,91,0.00,,,0.00,Wunderground v.1.15,2013-07-25 12:35:00,
2013-07-25 07:45:00,80.6,77.7,29.92,SSE,153,1.0,4.0,91,0.00,,,0.00,Wunderground v.1.15,2013-07-25 12:45:00,
2013-07-25 07:50:00,81.0,77.8,29.92,ESE,117,1.0,4.0,90,0.00,,,0.00,Wunderground v.1.15,2013-07-25 12:50:00,
2013-07-25 07:55:00,81.4,77.8,29.92,South,191,1.0,4.0,89,0.00,,,0.00,Wunderground v.1.15,2013-07-25 12:55:00,
2013-07-25 08:00:00,81.9,78.3,29.92,SSE,162,2.0,2.0,89,0.00,,,0.00,Wunderground v.1.15,2013-07-25 13:00:00,
2013-07-25 08:10:00,82.6,78.3,29.93,SSE,165,2.0,2.0,87,0.00,,,0.00,Wunderground v.1.15,2013-07-25 13:10:00,
2013-07-25 08:20:00,83.3,78.7,29.93,ENE,69,1.0,1.0,86,0.00,,,0.00,Wunderground v.1.15,2013-07-25 13:20:00,
2013-07-25 08:25:00,83.4,78.8,29.93,South,184,2.0,4.0,86,0.00,,,0.00,Wunderground v.1.15,2013-07-25 13:25:00,
2013-07-25 08:30:00,83.4,78.4,29.93,ESE,114,4.0,4.0,85,0.00,,,0.00,Wunderground v.1.15,2013-07-25 13:30:00,
2013-07-25 08:35:00,83.6,78.6,29.93,SSE,154,4.0,6.0,85,0.00,,,0.00,Wunderground v.1.15,2013-07-25 13:35:00,
2013-07-25 08:40:00,83.7,78.7,29.93,SE,124,3.0,6.0,85,0.00,,,0.00,Wunderground v.1.15,2013-07-25 13:40:00,
2013-07-25 08:50:00,84.1,78.7,29.93,SSW,201,3.0,4.0,84,0.00,,,0.00,Wunderground v.1.15,2013-07-25 13:50:00,
2013-07-25 08:55:00,84.3,78.9,29.93,SE,128,3.0,4.0,84,0.00,,,0.00,Wunderground v.1.15,2013-07-25 13:55:00,
2013-07-25 09:00:00,84.8,79.1,29.93,SW,228,2.0,2.0,83,0.00,,,0.00,Wunderground v.1.15,2013-07-25 14:00:00,
2013-07-25 09:10:00,84.9,78.8,29.93,SSW,198,4.0,4.0,82,0.00,,,0.00,Wunderground v.1.15,2013-07-25 14:10:00,
2013-07-25 09:15:00,85.0,78.5,29.93,South,181,4.0,4.0,81,0.00,,,0.00,Wunderground v.1.15,2013-07-25 14:15:00,
2013-07-25 09:25:00,85.2,77.9,29.93,SSE,165,4.0,4.0,79,0.00,,,0.00,Wunderground v.1.15,2013-07-25 14:25:00,
2013-07-25 09:30:00,85.6,78.3,29.93,SSE,155,4.0,6.0,79,0.00,,,0.00,Wunderground v.1.15,2013-07-25 14:30:00,
2013-07-25 09:35:00,86.2,78.9,29.93,South,179,4.0,6.0,79,0.00,,,0.00,Wunderground v.1.15,2013-07-25 14:35:00,
2013-07-25 09:40:00,86.6,78.5,29.93,SSE,160,4.0,5.0,77,0.00,,,0.00,Wunderground v.1.15,2013-07-25 14:40:00,
2013-07-25 09:45:00,87.2,79.1,29.93,WSW,246,4.0,5.0,77,0.00,,,0.00,Wunderground v.1.15,2013-07-25 14:45:00,
2013-07-25 09:55:00,87.6,78.3,29.93,SSW,201,4.0,4.0,74,0.00,,,0.00,Wunderground v.1.15,2013-07-25 14:55:00,
2013-07-25 10:00:00,87.9,78.6,29.93,South,179,5.0,5.0,74,0.00,,,0.00,Wunderground v.1.15,2013-07-25 15:00:00,
2013-07-25 10:10:00,88.2,78.9,29.93,SSW,212,4.0,4.0,74,0.00,,,0.00,Wunderground v.1.15,2013-07-25 15:10:00,
2013-07-25 10:15:00,88.5,78.7,29.93,SSE,155,3.0,4.0,73,0.00,,,0.00,Wunderground v.1.15,2013-07-25 15:15:00,
2013-07-25 10:20:00,88.1,78.3,29.93,SSE,166,3.0,7.0,73,0.00,,,0.00,Wunderground v.1.15,2013-07-25 15:20:00,
2013-07-25 10:30:00,87.8,78.5,29.94,SW,233,4.0,5.0,74,0.00,,,0.00,Wunderground v.1.15,2013-07-25 15:30:00,
2013-07-25 10:35:00,88.2,78.4,29.94,SSE,160,3.0,5.0,73,0.00,,,0.00,Wunderground v.1.15,2013-07-25 15:35:00,
2013-07-25 10:40:00,88.5,78.3,29.94,SW,226,3.0,4.0,72,0.00,,,0.00,Wunderground v.1.15,2013-07-25 15:40:00,
2013-07-25 10:45:00,88.9,78.7,29.94,SW,232,3.0,4.0,72,0.00,,,0.00,Wunderground v.1.15,2013-07-25 15:45:00,
2013-07-25 10:50:00,89.1,78.9,29.94,SW,233,2.0,3.0,72,0.00,,,0.00,Wunderground v.1.15,2013-07-25 15:50:00,
2013-07-25 11:00:00,89.3,79.1,29.94,ESE,117,3.0,4.0,72,0.00,,,0.00,Wunderground v.1.15,2013-07-25 16:00:00,
2013-07-25 11:10:00,90.1,79.0,29.94,SSW,201,4.0,4.0,70,0.00,,,0.00,Wunderground v.1.15,2013-07-25 16:10:00,
2013-07-25 11:15:00,90.3,78.7,29.94,South,184,4.0,5.0,69,0.00,,,0.00,Wunderground v.1.15,2013-07-25 16:15:00,
2013-07-25 11:20:00,90.4,79.3,29.94,ESE,116,3.0,3.0,70,0.00,,,0.00,Wunderground v.1.15,2013-07-25 16:20:00,
2013-07-25 11:25:00,90.6,79.0,29.94,South,169,4.0,4.0,69,0.00,,,0.00,Wunderground v.1.15,2013-07-25 16:25:00,
2013-07-25 11:34:00,90.3,79.6,29.94,SSW,212,4.0,6.0,71,0.00,,,0.00,Wunderground v.1.15,2013-07-25 16:34:00,
2013-07-25 11:39:00,90.4,79.3,29.94,SSE,154,4.0,4.0,70,0.00,,,0.00,Wunderground v.1.15,2013-07-25 16:39:00,
2013-07-25 11:45:00,90.8,79.7,29.94,ENE,75,4.0,4.0,70,0.00,,,0.00,Wunderground v.1.15,2013-07-25 16:45:00,
2013-07-25 11:50:00,91.1,79.1,29.93,SSE,153,4.0,4.0,68,0.00,,,0.00,Wunderground v.1.15,2013-07-25 16:50:00,
2013-07-25 11:55:00,91.1,79.5,29.93,South,183,4.0,6.0,69,0.00,,,0.00,Wunderground v.1.15,2013-07-25 16:55:00,
2013-07-25 12:00:00,91.0,79.4,29.93,SE,143,4.0,4.0,69,0.00,,,0.00,Wunderground v.1.15,2013-07-25 17:00:00,
2013-07-25 12:10:00,91.6,79.1,29.93,SW,228,5.0,5.0,67,0.00,,,0.00,Wunderground v.1.15,2013-07-25 17:10:00,
2013-07-25 12:15:00,91.6,79.5,29.93,SSE,162,4.0,5.0,68,0.00,,,0.00,Wunderground v.1.15,2013-07-25 17:15:00,
2013-07-25 12:20:00,92.0,79.5,29.93,ESE,104,4.0,4.0,67,0.00,,,0.00,Wunderground v.1.15,2013-07-25 17:20:00,
2013-07-25 12:25:00,90.9,79.3,29.93,SE,136,6.0,6.0,69,0.00,,,0.00,Wunderground v.1.15,2013-07-25 17:25:00,
2013-07-25 12:30:00,90.8,79.2,29.93,ESE,122,6.0,8.0,69,0.00,,,0.00,Wunderground v.1.15,2013-07-25 17:30:00,
2013-07-25 12:40:00,91.7,79.6,29.93,SSE,148,5.0,6.0,68,0.00,,,0.00,Wunderground v.1.15,2013-07-25 17:40:00,
2013-07-25 12:45:00,91.8,79.3,29.93,SE,127,5.0,6.0,67,0.00,,,0.00,Wunderground v.1.15,2013-07-25 17:45:00,
2013-07-25 12:50:00,91.8,80.2,29.93,SSE,148,5.0,5.0,69,0.00,,,0.00,Wunderground v.1.15,2013-07-25 17:50:00,
2013-07-25 12:55:00,91.5,79.0,29.94,ESE,122,5.0,5.0,67,0.00,,,0.00,Wunderground v.1.15,2013-07-25 17:55:00,
2013-07-25 13:00:00,92.2,79.2,29.94,South,187,5.0,5.0,66,0.00,,,0.00,Wunderground v.1.15,2013-07-25 18:00:00,
2013-07-25 13:10:00,91.9,79.4,29.94,SE,124,5.0,10.0,67,0.00,,,0.00,Wunderground v.1.15,2013-07-25 18:10:00,
2013-07-25 13:15:00,90.6,79.5,29.94,ESE,112,7.0,10.0,70,0.00,,,0.00,Wunderground v.1.15,2013-07-25 18:15:00,
2013-07-25 13:20:00,90.6,79.5,29.94,ENE,70,8.0,8.0,70,0.00,,,0.00,Wunderground v.1.15,2013-07-25 18:20:00,
2013-07-25 13:25:00,90.5,80.2,29.94,ESE,122,6.0,8.0,72,0.00,,,0.00,Wunderground v.1.15,2013-07-25 18:25:00,
2013-07-25 13:30:00,90.6,80.3,29.94,ESE,117,6.0,11.0,72,0.00,,,0.00,Wunderground v.1.15,2013-07-25 18:30:00,
2013-07-25 13:35:00,90.3,79.6,29.94,ESE,117,7.0,11.0,71,0.00,,,0.00,Wunderground v.1.15,2013-07-25 18:35:00,
2013-07-25 13:45:00,89.5,79.3,29.94,SE,141,8.0,15.0,72,0.00,,,0.00,Wunderground v.1.15,2013-07-25 18:45:00,
2013-07-25 13:50:00,89.5,79.7,29.94,East,82,8.0,8.0,73,0.00,,,0.00,Wunderground v.1.15,2013-07-25 18:50:00,
2013-07-25 13:55:00,89.6,79.4,29.94,East,89,8.0,9.0,72,0.00,,,0.00,Wunderground v.1.15,2013-07-25 18:55:00,
2013-07-25 14:00:00,89.6,80.2,29.94,ENE,63,9.0,9.0,74,0.00,,,0.00,Wunderground v.1.15,2013-07-25 19:00:00,
2013-07-25 14:10:00,89.6,79.4,29.93,ESE,113,8.0,8.0,72,0.00,,,0.00,Wunderground v.1.15,2013-07-25 19:10:00,
2013-07-25 14:20:00,89.7,79.5,29.93,ENE,68,8.0,8.0,72,0.00,,,0.00,Wunderground v.1.15,2013-07-25 19:20:00,
2013-07-25 14:25:00,90.3,79.6,29.93,ESE,109,7.0,11.0,71,0.00,,,0.00,Wunderground v.1.15,2013-07-25 19:25:00,
2013-07-25 14:30:00,90.0,79.3,29.93,SSE,148,7.0,13.0,71,0.00,,,0.00,Wunderground v.1.15,2013-07-25 19:30:00,
2013-07-25 14:35:00,89.6,79.8,29.93,East,101,8.0,13.0,73,0.00,,,0.00,Wunderground v.1.15,2013-07-25 19:35:00,
2013-07-25 14:40:00,89.8,79.6,29.93,SE,132,8.0,8.0,72,0.00,,,0.00,Wunderground v.1.15,2013-07-25 19:40:00,
2013-07-25 14:50:00,90.1,79.4,29.93,SE,127,7.0,11.0,71,0.00,,,0.00,Wunderground v.1.15,2013-07-25 19:50:00,
2013-07-25 14:55:00,89.9,79.7,29.93,East,92,6.0,11.0,72,0.00,,,0.00,Wunderground v.1.15,2013-07-25 19:55:00,
2013-07-25 15:00:00,89.7,79.9,29.93,East,85,7.0,7.0,73,0.00,,,0.00,Wunderground v.1.15,2013-07-25 20:00:00,
2013-07-25 15:10:00,89.8,79.1,29.92,ENE,77,8.0,8.0,71,0.00,,,0.00,Wunderground v.1.15,2013-07-25 20:10:00,
2013-07-25 15:15:00,89.6,79.4,29.92,East,98,8.0,8.0,72,0.00,,,0.00,Wunderground v.1.15,2013-07-25 20:15:00,
2013-07-25 15:25:00,89.9,78.8,29.92,SE,131,7.0,8.0,70,0.00,,,0.00,Wunderground v.1.15,2013-07-25 20:25:00,
2013-07-25 15:30:00,90.5,78.9,29.92,ESE,122,6.0,6.0,69,0.00,,,0.00,Wunderground v.1.15,2013-07-25 20:30:00,
2013-07-25 15:35:00,90.3,78.7,29.92,SW,236,7.0,7.0,69,0.00,,,0.00,Wunderground v.1.15,2013-07-25 20:35:00,
2013-07-25 15:40:00,90.0,78.5,29.92,SE,131,7.0,8.0,69,0.00,,,0.00,Wunderground v.1.15,2013-07-25 20:40:00,
2013-07-25 15:45:00,89.7,78.2,29.92,SSE,150,8.0,8.0,69,0.00,,,0.00,Wunderground v.1.15,2013-07-25 20:45:00,
2013-07-25 15:55:00,90.0,78.5,29.92,ESE,115,7.0,9.0,69,0.00,,,0.00,Wunderground v.1.15,2013-07-25 20:55:00,
2013-07-25 16:00:00,89.9,78.4,29.92,ENE,72,8.0,8.0,69,0.00,,,0.00,Wunderground v.1.15,2013-07-25 21:00:00,
2013-07-25 16:10:00,90.4,77.9,29.91,SE,131,7.0,7.0,67,0.00,,,0.00,Wunderground v.1.15,2013-07-25 21:10:00,
2013-07-25 16:15:00,90.2,78.6,29.91,SE,144,7.0,10.0,69,0.00,,,0.00,Wunderground v.1.15,2013-07-25 21:15:00,
2013-07-25 16:20:00,89.8,78.7,29.91,SSE,154,8.0,8.0,70,0.00,,,0.00,Wunderground v.1.15,2013-07-25 21:20:00,
2013-07-25 16:30:00,89.6,78.5,29.91,ESE,103,8.0,8.0,70,0.00,,,0.00,Wunderground v.1.15,2013-07-25 21:30:00,
2013-07-25 16:35:00,89.6,78.9,29.92,SE,128,8.0,8.0,71,0.00,,,0.00,Wunderground v.1.15,2013-07-25 21:35:00,
2013-07-25 16:40:00,89.7,79.0,29.92,East,81,7.0,11.0,71,0.00,,,0.00,Wunderground v.1.15,2013-07-25 21:40:00,
2013-07-25 16:45:00,89.6,78.5,29.92,ESE,117,7.0,11.0,70,0.00,,,0.00,Wunderground v.1.15,2013-07-25 21:45:00,
2013-07-25 16:50:00,89.3,78.2,29.92,ESE,115,8.0,9.0,70,0.00,,,0.00,Wunderground v.1.15,2013-07-25 21:50:00,
2013-07-25 17:00:00,89.2,78.6,29.92,SSE,153,8.0,8.0,71,0.00,,,0.00,Wunderground v.1.15,2013-07-25 22:00:00,
2013-07-25 17:10:00,89.2,78.1,29.92,SSE,162,7.0,11.0,70,0.00,,,0.00,Wunderground v.1.15,2013-07-25 22:10:00,
2013-07-25 17:15:00,89.2,77.7,29.92,ESE,105,8.0,11.0,69,0.00,,,0.00,Wunderground v.1.15,2013-07-25 22:15:00,
2013-07-25 17:20:00,89.4,78.3,29.92,SE,131,7.0,7.0,70,0.00,,,0.00,Wunderground v.1.15,2013-07-25 22:20:00,
2013-07-25 17:25:00,89.2,78.1,29.92,East,79,7.0,7.0,70,0.00,,,0.00,Wunderground v.1.15,2013-07-25 22:25:00,
2013-07-25 17:35:00,88.8,78.6,29.92,East,81,7.0,10.0,72,0.00,,,0.00,Wunderground v.1.15,2013-07-25 22:35:00,
2013-07-25 17:40:00,88.7,77.7,29.92,SSE,148,7.0,7.0,70,0.00,,,0.00,Wunderground v.1.15,2013-07-25 22:40:00,
2013-07-25 17:45:00,88.9,78.3,29.92,South,173,7.0,12.0,71,0.00,,,0.00,Wunderground v.1.15,2013-07-25 22:45:00,
2013-07-25 17:50:00,89.3,78.2,29.92,East,96,6.0,10.0,70,0.00,,,0.00,Wunderground v.1.15,2013-07-25 22:50:00,
2013-07-25 17:55:00,89.1,77.6,29.92,ESE,115,6.0,10.0,69,0.00,,,0.00,Wunderground v.1.15,2013-07-25 22:55:00,
2013-07-25 18:00:00,88.9,77.8,29.92,ESE,114,7.0,7.0,70,0.00,,,0.00,Wunderground v.1.15,2013-07-25 23:00:00,
2013-07-25 18:10:00,88.7,78.1,29.92,SSE,159,7.0,7.0,71,0.00,,,0.00,Wunderground v.1.15,2013-07-25 23:10:00,
2013-07-25 18:15:00,88.4,78.2,29.92,SE,143,7.0,14.0,72,0.00,,,0.00,Wunderground v.1.15,2013-07-25 23:15:00,
2013-07-25 18:20:00,88.3,77.7,29.92,SE,142,8.0,11.0,71,0.00,,,0.00,Wunderground v.1.15,2013-07-25 23:20:00,
2013-07-25 18:25:00,88.2,78.0,29.92,SW,217,7.0,11.0,72,0.00,,,0.00,Wunderground v.1.15,2013-07-25 23:25:00,
2013-07-25 18:30:00,88.1,77.9,29.92,SE,127,6.0,7.0,72,0.00,,,0.00,Wunderground v.1.15,2013-07-25 23:30:00,
2013-07-25 18:35:00,87.7,78.0,29.92,East,96,7.0,7.0,73,0.00,,,0.00,Wunderground v.1.15,2013-07-25 23:35:00,
2013-07-25 18:44:00,87.8,78.1,29.91,SE,129,6.0,7.0,73,0.00,,,0.00,Wunderground v.1.15,2013-07-25 23:44:00,
2013-07-25 18:49:00,88.0,78.3,29.91,East,92,5.0,5.0,73,0.00,,,0.00,Wunderground v.1.15,2013-07-25 23:49:00,
2013-07-25 18:54:00,88.0,78.3,29.91,SE,141,5.0,5.0,73,0.00,,,0.00,Wunderground v.1.15,2013-07-25 23:54:00,
2013-07-25 19:00:00,87.7,78.4,29.91,SSE,150,6.0,6.0,74,0.00,,,0.00,Wunderground v.1.15,2013-07-26 00:00:00,
2013-07-25 19:10:00,87.2,78.3,29.91,South,180,6.0,12.0,75,0.00,,,0.00,Wunderground v.1.15,2013-07-26 00:10:00,
2013-07-25 19:15:00,87.0,78.1,29.91,ESE,109,7.0,12.0,75,0.00,,,0.00,Wunderground v.1.15,2013-07-26 00:15:00,
2013-07-25 19:20:00,86.8,77.9,29.91,ESE,123,6.0,10.0,75,0.00,,,0.00,Wunderground v.1.15,2013-07-26 00:20:00,
2013-07-25 19:25:00,86.7,77.8,29.91,SSE,162,6.0,10.0,75,0.00,,,0.00,Wunderground v.1.15,2013-07-26 00:25:00,
2013-07-25 19:30:00,86.6,78.1,29.91,SSE,153,6.0,6.0,76,0.00,,,0.00,Wunderground v.1.15,2013-07-26 00:30:00,
2013-07-25 19:35:00,86.4,77.9,29.91,SE,131,7.0,7.0,76,0.00,,,0.00,Wunderground v.1.15,2013-07-26 00:35:00,
2013-07-25 19:45:00,86.1,78.0,29.92,ESE,112,6.0,10.0,77,0.00,,,0.00,Wunderground v.1.15,2013-07-26 00:45:00,
2013-07-25 19:50:00,85.8,78.1,29.92,ESE,117,7.0,7.0,78,0.00,,,0.00,Wunderground v.1.15,2013-07-26 00:50:00,
2013-07-25 19:55:00,85.6,77.9,29.92,South,183,6.0,7.0,78,0.00,,,0.00,Wunderground v.1.15,2013-07-26 00:55:00,
2013-07-25 20:00:00,85.3,78.0,29.92,SSE,148,5.0,5.0,79,0.00,,,0.00,Wunderground v.1.15,2013-07-26 01:00:00,
2013-07-25 20:10:00,84.9,77.7,29.92,SSE,168,6.0,6.0,79,0.00,,,0.00,Wunderground v.1.15,2013-07-26 01:10:00,
2013-07-25 20:20:00,84.5,77.6,29.92,SE,143,6.0,6.0,80,0.00,,,0.00,Wunderground v.1.15,2013-07-26 01:20:00,
2013-07-25 20:25:00,84.4,77.6,29.92,SSE,166,6.0,7.0,80,0.00,,,0.00,Wunderground v.1.15,2013-07-26 01:25:00,
2013-07-25 20:30:00,84.3,77.8,29.92,SSE,152,5.0,6.0,81,0.00,,,0.00,Wunderground v.1.15,2013-07-26 01:30:00,
2013-07-25 20:35:00,84.2,77.7,29.93,SE,141,4.0,6.0,81,0.00,,,0.00,Wunderground v.1.15,2013-07-26 01:35:00,
2013-07-25 20:40:00,84.1,77.6,29.93,SSE,162,5.0,5.0,81,0.00,,,0.00,Wunderground v.1.15,2013-07-26 01:40:00,
2013-07-25 20:50:00,84.0,77.5,29.93,SE,135,5.0,5.0,81,0.00,,,0.00,Wunderground v.1.15,2013-07-26 01:50:00,
2013-07-25 20:55:00,83.9,77.8,29.93,SW,217,4.0,5.0,82,0.00,,,0.00,Wunderground v.1.15,2013-07-26 01:55:00,
2013-07-25 21:00:00,83.9,78.2,29.93,SSE,148,6.0,6.0,83,0.00,,,0.00,Wunderground v.1.15,2013-07-26 02:00:00,
2013-07-25 21:10:00,83.8,78.4,29.93,ESE,109,4.0,4.0,84,0.00,,,0.00,Wunderground v.1.15,2013-07-26 02:10:00,
2013-07-25 21:15:00,83.7,78.3,29.93,South,172,4.0,7.0,84,0.00,,,0.00,Wunderground v.1.15,2013-07-26 02:15:00,
2013-07-25 21:25:00,83.7,78.3,29.94,ESE,116,5.0,5.0,84,0.00,,,0.00,Wunderground v.1.15,2013-07-26 02:25:00,
2013-07-25 21:30:00,83.6,78.2,29.93,SSW,195,4.0,7.0,84,0.00,,,0.00,Wunderground v.1.15,2013-07-26 02:30:00,
2013-07-25 21:35:00,83.5,78.2,29.93,SE,125,4.0,8.0,84,0.00,,,0.00,Wunderground v.1.15,2013-07-26 02:35:00,
2013-07-25 21:40:00,83.5,78.2,29.93,ESE,109,5.0,8.0,84,0.00,,,0.00,Wunderground v.1.15,2013-07-26 02:40:00,
2013-07-25 21:45:00,83.5,78.5,29.93,ESE,105,6.0,8.0,85,0.00,,,0.00,Wunderground v.1.15,2013-07-26 02:45:00,
2013-07-25 21:55:00,83.4,78.4,29.93,SE,131,6.0,6.0,85,0.00,,,0.00,Wunderground v.1.15,2013-07-26 02:55:00,
2013-07-25 22:00:00,83.4,78.4,29.93,SSE,162,5.0,5.0,85,0.00,,,0.00,Wunderground v.1.15,2013-07-26 03:00:00,
2013-07-25 22:10:00,83.3,78.3,29.93,SSW,210,4.0,4.0,85,0.00,,,0.00,Wunderground v.1.15,2013-07-26 03:10:00,
2013-07-25 22:15:00,83.3,78.3,29.93,SSE,149,5.0,5.0,85,0.00,,,0.00,Wunderground v.1.15,2013-07-26 03:15:00,
2013-07-25 22:20:00,83.2,78.2,29.93,SSE,159,5.0,7.0,85,0.00,,,0.00,Wunderground v.1.15,2013-07-26 03:20:00,
2013-07-25 22:30:00,83.2,78.2,29.93,SSE,166,5.0,6.0,85,0.00,,,0.00,Wunderground v.1.15,2013-07-26 03:30:00,
2013-07-25 22:35:00,83.1,78.1,29.94,SSE,166,5.0,6.0,85,0.00,,,0.00,Wunderground v.1.15,2013-07-26 03:35:00,
2013-07-25 22:40:00,83.1,78.1,29.94,SE,143,6.0,6.0,85,0.00,,,0.00,Wunderground v.1.15,2013-07-26 03:40:00,
2013-07-25 22:45:00,83.0,77.7,29.94,South,186,5.0,7.0,84,0.00,,,0.00,Wunderground v.1.15,2013-07-26 03:45:00,
2013-07-25 22:50:00,83.0,77.7,29.94,SSE,166,5.0,5.0,84,0.00,,,0.00,Wunderground v.1.15,2013-07-26 03:50:00,
2013-07-25 23:00:00,83.0,77.3,29.94,SSE,153,5.0,8.0,83,0.00,,,0.00,Wunderground v.1.15,2013-07-26 04:00:00,
2013-07-25 23:05:00,83.0,77.3,29.94,SE,145,5.0,8.0,83,0.00,,,0.00,Wunderground v.1.15,2013-07-26 04:05:00,
2013-07-25 23:10:00,83.1,77.8,29.94,SE,146,6.0,6.0,84,0.00,,,0.00,Wunderground v.1.15,2013-07-26 04:10:00,
2013-07-25 23:15:00,83.0,77.7,29.94,South,191,5.0,6.0,84,0.00,,,0.00,Wunderground v.1.15,2013-07-26 04:15:00,
2013-07-25 23:20:00,83.0,78.0,29.94,SSW,200,5.0,5.0,85,0.00,,,0.00,Wunderground v.1.15,2013-07-26 04:20:00,
2013-07-25 23:25:00,82.9,77.9,29.94,ESE,109,5.0,5.0,85,0.00,,,0.00,Wunderground v.1.15,2013-07-26 04:25:00,
2013-07-25 23:30:00,82.9,77.9,29.94,SSW,198,3.0,3.0,85,0.00,,,0.00,Wunderground v.1.15,2013-07-26 04:30:00,
2013-07-25 23:35:00,82.8,77.8,29.95,SSW,193,4.0,4.0,85,0.00,,,0.00,Wunderground v.1.15,2013-07-26 04:35:00,
2013-07-25 23:40:00,82.8,77.8,29.95,South,190,5.0,6.0,85,0.00,,,0.00,Wunderground v.1.15,2013-07-26 04:40:00,
2013-07-25 23:45:00,82.7,77.7,29.95,SSE,163,4.0,6.0,85,0.00,,,0.00,Wunderground v.1.15,2013-07-26 04:45:00,
2013-07-25 23:50:00,82.7,77.7,29.94,SSE,148,5.0,5.0,85,0.00,,,0.00,Wunderground v.1.15,2013-07-26 04:50:00,
2013-07-25 23:55:00,82.7,77.7,29.94,SSW,207,5.0,5.0,85,0.00,,,0.00,Wunderground v.1.15,2013-07-26 04:55:00,